Satellite-Ground Cal/Val Region Overpasses Predictions

Prediction of Satellite NPP Overpassing Cal/Val Region: PacNW

Region Location: (Latitude: 10.00, Longitude: 139.50) to (Latitude: 22.70, Longitude: 165.60).

Table of predicted overpasses for the next 14.0 days since TLE Epoch: 7/21/2012
Interval Starting Time Starting Location Ending Time Ending Location
1 07/22/2012 03:09:08 ( 10.01, 151.99) 07/22/2012 03:12:44 ( 22.69, 148.98)
2 07/22/2012 15:41:02 ( 22.67, 149.21) 07/22/2012 15:44:37 ( 10.05, 146.21)
3 07/23/2012 02:50:07 ( 10.03, 156.74) 07/23/2012 02:53:42 ( 22.65, 153.75)
4 07/23/2012 15:22:01 ( 22.66, 153.96) 07/23/2012 15:25:36 ( 10.03, 150.97)
5 07/24/2012 02:31:05 ( 10.05, 161.50) 07/24/2012 02:34:40 ( 22.67, 158.50)
6 07/24/2012 15:02:58 ( 22.69, 158.73) 07/24/2012 15:06:34 ( 10.01, 155.72)
7 07/25/2012 02:12:52 ( 12.89, 165.60) 07/25/2012 02:15:39 ( 22.69, 163.25)
8 07/25/2012 03:53:33 ( 10.01, 140.89) 07/25/2012 03:55:14 ( 15.95, 139.51)
9 07/25/2012 14:43:57 ( 22.67, 163.48) 07/25/2012 14:47:32 ( 10.05, 160.48)
10 07/26/2012 03:34:31 ( 10.03, 145.64) 07/26/2012 03:38:06 ( 22.66, 142.64)
11 07/26/2012 14:28:03 ( 11.62, 165.60) 07/26/2012 14:28:30 ( 10.03, 165.23)
12 07/26/2012 16:06:25 ( 22.65, 142.86) 07/26/2012 16:10:00 ( 10.03, 139.86)
13 07/27/2012 03:15:30 ( 10.06, 150.39) 07/27/2012 03:19:05 ( 22.68, 147.39)
14 07/27/2012 15:47:23 ( 22.68, 147.62) 07/27/2012 15:50:59 ( 10.00, 144.61)
15 07/28/2012 02:56:27 ( 10.02, 155.15) 07/28/2012 03:00:03 ( 22.70, 152.14)
16 07/28/2012 15:28:21 ( 22.66, 152.37) 07/28/2012 15:31:56 ( 10.04, 149.37)
17 07/29/2012 02:37:26 ( 10.04, 159.90) 07/29/2012 02:41:01 ( 22.66, 156.90)
18 07/29/2012 15:09:19 ( 22.70, 157.14) 07/29/2012 15:12:55 ( 10.02, 154.12)
19 07/30/2012 02:18:24 ( 10.01, 164.67) 07/30/2012 02:22:00 ( 22.69, 161.65)
20 07/30/2012 14:50:17 ( 22.67, 161.89) 07/30/2012 14:53:52 ( 10.05, 158.89)
21 07/31/2012 03:40:52 ( 10.04, 144.04) 07/31/2012 03:44:27 ( 22.66, 141.04)
22 07/31/2012 14:32:29 ( 18.37, 165.59) 07/31/2012 14:34:51 ( 10.03, 163.64)
23
